TimeEST,TemperatureF,Dew PointF,Humidity,Sea Level PressureIn,VisibilityMPH,Wind Direction,Wind SpeedMPH,Gust SpeedMPH,PrecipitationIn,Events,Conditions,WindDirDegrees,DateUTC
12:15 AM,32.0,24.8,75,30.29,10.0,Calm,Calm,-,N/A,,Clear,0,2012-11-15 05:15:00
12:35 AM,32.0,26.6,80,30.29,10.0,Calm,Calm,-,N/A,,Clear,0,2012-11-15 05:35:00
12:55 AM,32.0,24.8,75,30.28,10.0,Calm,Calm,-,N/A,,Clear,0,2012-11-15 05:55:00
1:15 AM,32.0,24.8,75,30.27,10.0,Calm,Calm,-,N/A,,Clear,0,2012-11-15 06:15:00
1:35 AM,30.2,24.8,80,30.26,10.0,Calm,Calm,-,N/A,,Clear,0,2012-11-15 06:35:00
2:15 AM,30.2,24.8,80,30.27,10.0,Calm,Calm,-,N/A,,Clear,0,2012-11-15 07:15:00
2:35 AM,30.2,24.8,80,30.27,10.0,Calm,Calm,-,N/A,,Clear,0,2012-11-15 07:35:00
2:55 AM,30.2,24.8,80,30.26,10.0,Calm,Calm,-,N/A,,Clear,0,2012-11-15 07:55:00
3:15 AM,30.2,24.8,80,30.27,10.0,Calm,Calm,-,N/A,,Clear,0,2012-11-15 08:15:00
3:35 AM,30.2,24.8,80,30.26,10.0,Calm,Calm,-,N/A,,Clear,0,2012-11-15 08:35:00
4:15 AM,30.2,24.8,80,30.25,10.0,Calm,Calm,-,N/A,,Clear,0,2012-11-15 09:15:00
4:35 AM,32.0,24.8,75,30.26,10.0,Calm,Calm,-,N/A,,Clear,0,2012-11-15 09:35:00
4:55 AM,28.4,24.8,86,30.25,10.0,Calm,Calm,-,N/A,,Clear,0,2012-11-15 09:55:00
5:15 AM,30.2,24.8,80,30.26,10.0,Calm,Calm,-,N/A,,Clear,0,2012-11-15 10:15:00
5:35 AM,30.2,24.8,80,30.26,10.0,Calm,Calm,-,N/A,,Clear,0,2012-11-15 10:35:00
5:55 AM,28.4,24.8,86,30.26,10.0,Calm,Calm,-,N/A,,Clear,0,2012-11-15 10:55:00
6:15 AM,30.2,26.6,86,30.25,10.0,Calm,Calm,-,N/A,,Clear,0,2012-11-15 11:15:00
6:35 AM,30.2,26.6,86,30.25,10.0,Calm,Calm,-,N/A,,Clear,0,2012-11-15 11:35:00
7:35 AM,30.2,24.8,80,30.25,10.0,Calm,Calm,-,N/A,,Clear,0,2012-11-15 12:35:00
7:55 AM,30.2,24.8,80,30.26,10.0,Calm,Calm,-,N/A,,Clear,0,2012-11-15 12:55:00
8:35 AM,30.2,26.6,86,30.26,10.0,Calm,Calm,-,N/A,,Clear,0,2012-11-15 13:35:00
8:55 AM,30.2,26.6,86,30.26,10.0,Calm,Calm,-,N/A,,Clear,0,2012-11-15 13:55:00
9:15 AM,32.0,26.6,80,30.26,10.0,Calm,Calm,-,N/A,,Clear,0,2012-11-15 14:15:00
9:35 AM,32.0,28.4,87,30.27,10.0,Calm,Calm,-,N/A,,Clear,0,2012-11-15 14:35:00
9:55 AM,32.0,28.4,87,30.27,10.0,Calm,Calm,-,N/A,,Clear,0,2012-11-15 14:55:00
10:15 AM,32.0,28.4,87,30.27,10.0,East,3.5,-,N/A,,Clear,80,2012-11-15 15:15:00
10:35 AM,32.0,26.6,80,30.27,10.0,North,3.5,-,N/A,,Clear,360,2012-11-15 15:35:00
11:15 AM,33.8,28.4,81,30.27,10.0,Calm,Calm,-,N/A,,Clear,0,2012-11-15 16:15:00
11:35 AM,35.6,28.4,75,30.26,10.0,WNW,3.5,-,N/A,,Clear,300,2012-11-15 16:35:00
12:55 PM,42.8,28.4,57,30.22,10.0,Calm,Calm,-,N/A,,Clear,0,2012-11-15 17:55:00
1:15 PM,42.8,28.4,57,30.22,10.0,Calm,Calm,-,N/A,,Clear,0,2012-11-15 18:15:00
1:35 PM,44.6,30.2,57,30.21,10.0,Calm,Calm,-,N/A,,Clear,0,2012-11-15 18:35:00
1:55 PM,46.4,28.4,50,30.20,10.0,NNW,5.8,-,N/A,,Clear,330,2012-11-15 18:55:00
2:15 PM,46.4,28.4,50,30.20,10.0,NW,6.9,-,N/A,,Clear,310,2012-11-15 19:15:00
2:35 PM,46.4,28.4,50,30.19,10.0,NNW,4.6,-,N/A,,Clear,340,2012-11-15 19:35:00
2:55 PM,46.4,26.6,46,30.19,10.0,NW,10.4,-,N/A,,Clear,320,2012-11-15 19:55:00
3:15 PM,46.4,28.4,50,30.19,10.0,NNW,9.2,-,N/A,,Clear,330,2012-11-15 20:15:00
3:35 PM,46.4,26.6,46,30.19,10.0,NW,3.5,-,N/A,,Clear,320,2012-11-15 20:35:00
4:15 PM,46.4,26.6,46,30.20,10.0,NW,6.9,-,N/A,,Clear,320,2012-11-15 21:15:00
4:35 PM,46.4,26.6,46,30.20,10.0,NNW,5.8,-,N/A,,Clear,340,2012-11-15 21:35:00
5:15 PM,44.6,24.8,46,30.20,10.0,NW,4.6,-,N/A,,Clear,310,2012-11-15 22:15:00
5:35 PM,42.8,26.6,53,30.20,10.0,WNW,5.8,-,N/A,,Clear,290,2012-11-15 22:35:00
5:55 PM,42.8,24.8,49,30.21,10.0,NW,4.6,-,N/A,,Clear,310,2012-11-15 22:55:00
6:35 PM,42.8,23.0,46,30.22,10.0,Calm,Calm,-,N/A,,Clear,0,2012-11-15 23:35:00
6:55 PM,41.0,24.8,53,30.23,10.0,WNW,4.6,-,N/A,,Clear,290,2012-11-15 23:55:00
7:15 PM,41.0,23.0,49,30.23,10.0,Calm,Calm,-,N/A,,Clear,0,2012-11-16 00:15:00
7:35 PM,41.0,24.8,53,30.23,10.0,Calm,Calm,-,N/A,,Clear,0,2012-11-16 00:35:00
7:55 PM,37.4,26.6,65,30.23,10.0,Calm,Calm,-,N/A,,Clear,0,2012-11-16 00:55:00
8:15 PM,37.4,26.6,65,30.24,10.0,Calm,Calm,-,N/A,,Clear,0,2012-11-16 01:15:00
8:35 PM,37.4,26.6,65,30.24,10.0,Calm,Calm,-,N/A,,Clear,0,2012-11-16 01:35:00
8:55 PM,35.6,28.4,75,30.23,10.0,Calm,Calm,-,N/A,,Clear,0,2012-11-16 01:55:00
9:15 PM,33.8,28.4,81,30.23,10.0,Calm,Calm,-,N/A,,Clear,0,2012-11-16 02:15:00
9:35 PM,33.8,28.4,81,30.24,10.0,SSW,3.5,-,N/A,,Clear,200,2012-11-16 02:35:00
9:55 PM,33.8,28.4,81,30.24,10.0,Calm,Calm,-,N/A,,Clear,0,2012-11-16 02:55:00
10:55 PM,33.8,28.4,81,30.24,10.0,Calm,Calm,-,N/A,,Clear,0,2012-11-16 03:55:00
11:15 PM,32.0,28.4,87,30.24,10.0,Calm,Calm,-,N/A,,Clear,0,2012-11-16 04:15:00
11:35 PM,33.8,28.4,81,30.23,10.0,Calm,Calm,-,N/A,,Clear,0,2012-11-16 04:35:00
11:55 PM,33.8,28.4,81,30.23,10.0,Calm,Calm,-,N/A,,Clear,0,2012-11-16 04:55:00